Temp
19 19 18 18 18 17 17 17 17 17 17 17 16 16 16 16 15 15 15 16 16 16 16 16 15 15 15 15 15 16 16 16 16 16 16 16 16 15 15 15 15 15
19 19 18 18 18 18 18 17 17 17 17 17 17 16 16 16 15 15 15 16 16 16 16 16 15 15 15 15 16 16 15 15 15 15 15 15 15 15 14 14 14 14
19 19 19 18 18 18 18 18 18 18 17 17 17 17 16 16 16 15 16 16 16 16 16 16 16 15 15 15 16 16 15 15 14 14 15 15 15 15 14 14 14 14
19 19 19 18 18 18 18 18 18 18 18 17 17 17 17 16 16 16 16 16 16 16 16 16 15 15 15 15 15 15 15 14 14 14 14 14 14 14 14 14 14 14
19 19 19 19 18 18 18 18 18 18 18 18 17 17 17 17 16 16 16 16 16 16 16 15 15 15 15 15 15 15 15 15 15 15 14 14 14 14 14 14 14 14
18 19 19 19 19 19 18 18 18 18 18 18 18 17 17 17 17 16 16 16 16 15 15 15 15 15 15 15 15 15 15 15 15 15 14 14 14 14 14 14 14 14
15 15 16 17 18 19 19 19 18 18 18 18 18 18 17 17 17 17 17 16 16 15 15 15 15 15 15 15 15 15 15 15 15 14 14 14 14 14 14 14 14 14
15 15 16 16 17 18 19 18 18 18 18 18 18 18 18 18 17 17 17 17 16 16 15 15 15 15 15 15 15 15 15 15 15 14 14 14 14 14 14 14 14 14
16 17 17 17 17 18 18 18 18 18 18 18 18 18 18 18 17 17 17 17 16 16 16 15 15 15 15 15 15 15 15 15 14 14 14 14 14 14 14 14 14 14
17 17 17 17 16 17 18 18 18 18 18 18 18 17 17 17 17 17 17 16 16 16 16 15 15 15 15 15 15 15 15 15 14 14 15 14 14 14 14 14 14 14
16 17 17 17 17 16 17 17 18 18 18 18 18 17 17 17 16 16 16 16 16 16 16 16 16 16 15 15 15 15 15 15 15 14 15 14 14 14 14 14 14 13
16 16 17 17 17 17 17 17 17 18 18 18 18 18 18 17 17 16 16 16 16 16 16 16 16 15 15 15 15 15 15 15 15 15 15 14 14 14 14 14 14 13
16 16 16 16 16 16 16 16 17 18 18 18 18 18 18 18 17 17 16 16 16 16 16 16 15 15 15 15 15 15 15 15 15 15 14 14 14 14 14 14 14 13
16 16 15 15 15 15 15 16 16 17 17 17 17 17 17 17 17 17 16 16 16 16 16 16 15 15 15 15 15 15 15 15 15 15 15 14 14 14 14 14 13 13
15 15 15 15 15 15 15 16 16 16 16 16 17 17 17 17 16 16 16 16 16 16 15 15 15 15 15 15 15 15 15 15 15 15 15 14 14 14 14 13 13 13
16 16 16 16 16 16 16 16 16 16 16 16 16 16 16 16 16 16 16 16 16 15 15 15 15 15 15 15 15 15 15 15 15 15 14 14 14 14 13 13 13 13
16 16 16 16 16 16 17 17 16 16 16 16 16 16 16 16 16 16 16 16 16 15 15 15 15 15 15 15 15 15 15 15 15 15 14 14 14 14 13 13 13 12
17 17 17 17 17 17 16 16 16 16 16 16 16 16 16 16 16 16 16 16 16 16 15 15 15 15 15 15 15 15 15 15 15 15 14 14 14 13 13 13 12 12
17 17 17 17 17 17 17 17 17 17 17 16 16 16 16 16 16 16 16 16 16 15 15 16 15 15 15 15 15 15 15 14 14 14 14 14 13 13 12 12 12 12
17 17 17 17 17 17 17 17 17 17 17 16 17 16 16 16 16 16 16 16 16 15 15 15 15 15 15 15 15 14 14 14 14 14 13 13 13 12 12 12 12 12
17 17 16 16 16 16 16 16 16 16 16 16 16 16 16 16 16 16 16 16 16 16 15 15 15 14 14 14 14 14 14 14 14 13 13 12 12 12 12 12 12 11
16 16 16 16 16 16 16 16 16 16 16 16 16 16 16 16 16 16 16 16 16 15 15 15 15 14 14 13 13 13 13 13 13 13 12 11 11 11 12 12 12 11
16 16 16 16 16 16 15 15 15 16 16 16 16 16 16 16 16 16 16 16 15 15 15 15 15 14 14 13 12 13 13 12 12 12 11 11 11 11 11 11 11 11
16 16 16 16 15 15 15 15 15 15 15 15 15 15 15 15 15 15 15 16 15 15 15 14 14 14 13 12 12 12 12 12 12 11 10 10 11 11 11 11 11 10
16 16 15 15 15 15 15 15 15 15 15 15 15 15 15 15 15 15 15 15 15 15 15 14 14 13 12 11 12 11 11 11 11 10 10 10 10 10 10 10 10 10
15 15 15 15 15 15 15 15 15 15 14 14 14 14 15 15 15 15 15 15 15 15 14 14 13 13 11 11 11 11 10 10 10 10 10 10 10 10 9 9 9 9
Height
801 800 800 801 803 804 805 806 807 808 810 812 814 816 818 820 821 822 823 825 826 827 828 829 830 830 831 831 831 831 832 832 832 832 832 832 832 832 832 832 833 833
801 801 801 802 803 805 806 807 807 808 810 812 814 816 818 819 821 822 823 824 826 827 828 829 830 831 832 832 833 833 833 833 833 833 833 833 833 833 834 834 834 834
802 801 801 802 804 806 807 808 808 808 809 812 813 815 817 819 820 822 823 824 826 827 828 829 831 832 832 833 834 834 834 834 835 835 835 835 835 835 835 835 835 835
802 802 802 803 805 807 808 809 810 809 810 811 813 815 816 818 820 821 823 824 825 827 828 830 831 832 833 833 834 835 835 835 836 836 836 836 837 837 837 837 837 837
804 804 804 804 806 807 809 810 811 811 810 811 812 814 816 817 819 820 822 824 825 827 828 830 831 832 833 834 834 835 835 836 836 837 837 837 837 838 838 838 838 838
805 807 807 807 807 808 809 810 811 812 811 811 812 813 815 816 818 820 821 823 825 827 828 830 831 832 833 834 834 835 835 836 836 837 837 837 837 838 838 838 838 838
806 808 809 809 809 809 809 810 811 811 812 812 812 813 814 815 817 818 820 822 824 826 828 829 831 832 833 834 835 835 835 836 836 836 837 837 837 838 838 838 839 839
804 808 810 812 811 810 809 809 810 810 811 811 811 812 812 813 815 817 819 821 823 825 827 828 830 832 833 834 835 836 836 836 836 836 836 837 837 837 838 838 839 839
801 803 807 811 812 810 809 808 809 809 810 811 811 811 812 812 814 815 817 819 822 824 825 827 829 831 832 834 834 835 836 836 836 836 836 836 836 836 837 837 838 838
800 801 803 807 810 810 809 808 807 808 808 809 810 810 811 812 812 814 815 817 819 822 823 825 827 828 830 832 833 834 835 836 836 836 836 836 836 836 836 836 836 837
799 799 799 801 805 809 809 808 806 806 807 808 809 809 810 810 811 812 813 814 816 819 820 821 822 824 826 828 831 832 833 834 835 835 835 835 835 835 835 835 835 835
798 798 797 797 799 803 806 806 805 804 805 806 807 808 809 810 810 811 812 812 813 815 817 818 819 821 823 825 827 828 830 831 832 833 834 834 834 834 834 834 834 835
796 797 798 798 799 801 804 805 804 803 804 804 805 806 807 808 809 810 811 811 812 813 816 818 818 819 821 822 822 824 825 827 828 830 831 832 833 833 834 834 834 834
796 797 798 799 801 802 804 804 804 803 802 802 803 804 805 806 807 808 809 810 811 811 813 815 816 816 817 818 819 820 822 823 825 826 828 829 831 832 832 833 833 834
796 797 798 800 800 801 802 803 803 802 801 801 802 803 804 805 805 806 807 807 808 809 810 812 813 813 814 815 817 818 820 821 823 824 825 827 829 830 831 831 832 832
796 797 798 799 799 800 801 801 801 801 801 801 802 802 803 804 804 804 804 805 806 807 809 810 811 811 812 813 815 817 818 820 821 822 823 825 826 828 829 829 830 831
796 797 797 798 799 799 800 800 800 800 801 801 802 802 803 802 803 803 803 803 804 805 806 807 808 809 810 811 813 815 816 817 818 820 821 822 823 824 826 827 828 829
795 796 797 798 798 799 799 799 799 800 800 801 801 801 801 801 801 801 801 802 803 803 804 805 806 807 808 809 810 812 813 814 815 817 818 819 820 822 824 826 827 828
794 795 796 796 797 797 798 798 799 799 799 800 800 800 800 800 800 800 800 801 801 801 802 802 804 805 806 807 808 810 811 812 813 814 815 816 818 820 822 824 825 826
794 794 794 795 795 796 797 797 798 798 798 799 798 798 799 798 799 799 799 800 800 800 800 801 803 804 805 806 806 807 809 810 811 812 813 814 817 818 820 822 823 824
793 793 793 794 794 795 796 796 797 797 797 797 797 798 798 798 799 799 799 799 799 800 800 801 802 804 804 804 804 805 807 808 809 810 812 814 816 818 820 821 822 823
792 792 792 793 794 795 795 796 796 796 796 797 797 797 798 798 798 799 799 799 799 799 800 801 802 802 802 803 803 804 805 806 808 809 810 813 816 819 820 820 821 822
791 791 792 793 794 794 795 795 795 795 796 796 796 797 797 797 798 798 798 798 797 797 798 800 800 800 801 802 803 804 805 806 808 809 810 813 816 818 818 819 820 821
791 791 791 792 793 794 794 795 795 795 795 796 796 796 796 796 796 796 796 796 796 796 797 797 799 799 800 802 803 804 805 807 808 809 811 813 815 817 818 818 818 818
790 790 791 792 792 793 794 794 794 795 795 795 795 795 795 795 795 795 794 794 794 795 795 796 797 798 799 801 802 804 805 806 807 809 811 813 815 816 817 817 816 816
789 790 790 791 791 792 793 793 794 794 794 794 794 794 794 794 793 793 792 792 792 793 793 794 796 797 798 800 801 802 804 805 807 808 810 812 814 815 816 816 815 816
Wind_Speed
25 25 26 24 24 24 23 23 22 19 18 15 14 14 13 14 14 13 11 10 11 13 14 15 14 12 10 10 10 12 13 14 14 13 12 13 12 12 13 11 9 8
25 24 24 23 22 23 22 22 22 19 18 15 14 14 12 13 13 11 10 9 10 11 12 13 14 13 11 8 9 11 12 12 12 10 10 12 12 12 12 11 9 7
25 24 23 23 22 22 20 20 20 18 18 17 15 14 12 13 13 11 8 8 9 9 10 12 13 12 10 8 8 10 11 11 10 8 8 9 10 10 10 10 9 6
22 23 21 22 21 20 19 19 19 17 18 18 16 15 13 13 13 11 9 8 9 9 9 11 11 9 9 8 7 8 9 9 9 8 7 7 6 6 7 8 8 7
20 21 19 19 20 20 18 19 18 17 18 19 17 16 14 13 13 12 10 9 9 9 9 11 11 9 9 9 8 7 8 9 8 9 8 7 6 4 5 7 8 7
12 16 16 16 18 20 18 18 19 17 17 18 17 16 14 12 12 12 11 11 10 10 9 10 11 10 10 10 10 9 9 9 8 8 8 6 6 5 4 5 5 4
3 1 3 5 11 21 21 18 18 18 17 16 16 16 15 13 13 12 11 11 11 11 10 10 11 12 11 12 11 11 11 11 9 9 9 7 5 6 5 4 3 2
7 2 4 4 4 14 20 17 18 18 17 16 16 16 16 15 15 14 13 12 12 12 12 11 11 12 13 13 13 12 13 12 11 12 12 10 8 8 7 5 4 4
15 12 12 9 5 10 15 15 17 17 15 15 16 18 18 16 15 15 14 14 13 14 14 13 12 13 13 14 14 14 14 14 13 13 14 13 12 11 9 8 7 5
15 16 15 11 6 6 9 11 14 15 15 14 15 17 18 17 17 17 16 16 15 15 16 15 15 15 15 16 16 16 16 16 15 15 14 14 15 13 11 11 10 7
18 19 19 16 11 11 12 12 14 16 17 16 15 16 16 16 17 17 17 17 18 18 18 19 19 19 19 18 18 18 19 18 18 18 16 15 15 14 12 12 12 9
17 18 18 19 21 22 21 18 17 16 17 18 18 18 18 17 16 16 16 17 18 19 20 19 19 19 20 21 20 21 21 21 21 21 18 17 16 15 13 12 12 11
14 14 14 16 19 21 21 19 18 17 17 17 19 20 20 20 18 16 15 14 15 17 18 18 17 17 20 23 24 24 24 24 24 23 20 19 18 16 14 14 13 11
11 12 13 14 15 16 17 18 19 18 18 18 19 20 21 21 20 19 18 17 17 18 19 21 20 19 22 25 26 27 27 27 26 24 22 21 20 17 16 15 14 12
11 12 11 11 12 11 12 13 15 16 16 16 17 18 19 19 19 19 18 19 19 20 21 22 22 21 22 24 25 27 28 27 26 25 23 22 20 18 16 15 14 12
13 13 11 10 10 9 8 8 9 11 12 14 15 15 15 15 15 16 18 19 19 20 20 21 22 23 23 23 24 26 26 26 26 26 24 23 21 19 18 16 14 14
13 12 11 10 10 10 9 9 9 10 11 12 13 13 12 12 13 14 15 17 19 20 21 21 23 24 25 24 24 26 26 25 26 27 25 24 23 22 20 18 16 15
12 12 10 9 10 10 9 8 8 10 11 12 12 12 12 12 13 13 13 14 15 16 18 20 22 23 25 25 25 26 26 25 26 27 26 24 23 23 21 19 17 15
9 8 8 9 8 7 5 4 4 4 4 6 7 7 7 9 10 10 10 9 10 12 14 17 21 22 23 25 25 25 25 24 24 27 27 25 23 21 20 18 16 15
6 6 9 10 8 5 3 2 1 1 1 2 2 2 2 3 5 7 9 9 10 12 13 16 19 20 20 22 23 23 24 24 24 25 25 23 21 19 18 16 13 13
4 6 8 7 5 4 3 1 1 2 2 3 3 3 4 5 5 7 10 12 13 14 14 15 16 15 16 19 20 19 22 25 25 24 22 20 16 14 15 14 12 12
4 6 6 4 4 2 1 1 1 2 2 3 4 4 6 7 8 9 10 13 15 16 16 15 14 13 14 14 15 16 20 24 23 21 19 17 14 13 13 13 13 12
5 6 4 4 3 3 2 2 2 3 4 5 6 6 7 8 9 10 11 12 14 16 17 15 14 14 13 11 13 18 21 20 19 17 15 14 13 11 9 9 9 10
5 5 5 5 5 4 3 3 4 5 6 7 7 8 9 10 10 10 11 12 13 14 16 17 16 15 13 13 17 20 20 17 15 14 12 11 11 8 6 6 8 9
1 3 4 5 4 4 5 7 7 7 8 8 8 10 11 11 12 13 14 15 14 14 15 17 17 15 15 17 20 21 20 17 14 12 11 9 7 6 5 7 7 7
4 4 5 6 8 9 10 10 10 10 10 10 10 11 12 13 14 14 14 14 13 12 13 15 16 16 18 20 20 19 18 17 14 12 12 10 8 7 6 3 2 2
Wind_Direction
176 173 172 167 163 163 160 158 159 155 154 151 146 146 142 134 130 132 137 135 133 136 135 132 129 126 127 125 123 119 114 110 106 106 109 109 112 117 123 121 109 101
178 176 176 170 167 169 165 163 162 158 159 156 148 151 148 140 139 145 151 146 142 140 139 141 139 138 141 142 137 128 121 117 109 106 107 107 109 115 120 116 106 95
183 179 177 174 172 172 170 169 167 162 162 160 156 157 155 150 153 162 164 157 155 150 145 146 145 147 153 153 149 137 129 126 122 123 118 107 106 109 115 117 111 103
186 181 178 176 176 175 175 172 169 166 164 163 165 164 161 158 163 172 175 168 166 164 159 152 150 160 167 162 161 151 142 143 147 150 140 122 120 113 111 123 121 113
192 184 178 177 178 177 180 179 173 169 166 166 169 170 168 167 170 178 181 179 179 177 175 167 164 176 182 176 180 177 167 168 166 161 154 148 154 145 120 123 126 127
192 192 188 188 188 182 181 182 178 173 170 170 173 175 176 176 180 187 187 186 189 190 190 184 178 184 191 187 192 197 189 188 184 171 173 175 168 165 150 130 127 137
88 6 180 172 189 189 187 184 179 178 176 175 178 180 184 188 192 197 198 194 195 199 203 200 193 194 201 200 201 207 204 204 201 185 194 209 190 176 178 165 161 170
164 105 118 102 137 182 185 179 175 178 182 184 187 190 194 199 200 203 206 204 203 207 210 211 210 207 209 209 210 214 214 214 210 197 201 217 209 198 205 210 205 191
174 160 161 173 161 163 171 170 168 169 176 185 190 195 199 201 203 205 207 208 210 211 212 216 221 221 221 220 218 221 223 221 220 211 207 213 213 208 215 222 218 208
173 168 167 177 172 168 179 184 182 178 179 184 187 190 195 199 204 205 206 209 210 210 213 217 221 223 227 228 226 226 228 226 226 222 216 217 218 215 217 223 222 218
173 180 181 183 195 223 228 214 205 200 198 199 198 194 193 194 196 198 201 204 206 207 211 216 221 223 224 228 231 230 229 229 229 228 224 222 223 219 218 221 217 210
176 181 186 191 201 215 222 218 214 211 210 213 215 214 212 209 205 201 198 196 199 207 212 215 219 224 226 228 232 231 228 227 229 230 228 225 225 223 221 218 208 200
197 196 199 202 203 205 210 216 220 220 220 223 224 226 227 229 231 230 224 215 209 214 225 229 224 224 228 229 229 229 227 224 225 227 227 225 224 223 220 216 211 209
197 203 204 205 206 208 213 219 224 226 228 231 233 236 240 245 248 249 246 241 233 230 238 239 229 223 228 229 228 228 226 223 222 222 222 221 219 218 217 217 221 227
181 185 189 196 203 209 215 220 226 229 233 238 243 246 250 255 257 255 251 249 246 243 240 235 229 229 234 235 231 228 225 224 222 220 219 217 213 212 214 217 222 226
173 173 178 187 193 195 201 211 220 224 231 239 243 244 248 254 257 256 255 255 257 256 250 242 238 238 242 243 238 231 225 223 223 221 218 213 208 207 210 213 217 219
176 174 177 184 189 190 195 203 208 213 221 229 232 236 242 247 251 253 255 258 262 262 259 254 249 246 246 246 242 233 227 225 223 220 215 210 207 207 208 211 214 219
166 172 178 180 181 181 184 194 204 210 218 226 232 237 240 241 243 246 250 254 258 260 261 258 255 253 251 251 247 236 228 226 223 217 211 207 207 208 211 214 218 222
151 167 170 161 157 156 153 158 172 188 210 232 238 238 237 238 239 244 251 259 263 265 266 264 259 257 257 259 255 240 228 225 222 214 209 206 205 206 210 213 217 222
157 155 142 135 132 129 133 141 126 13 359 328 294 261 246 244 245 251 255 263 273 274 270 264 260 261 262 261 256 243 230 224 218 210 204 200 198 200 203 205 210 218
172 139 127 123 118 116 125 141 337 329 334 339 330 310 289 279 276 271 258 250 252 259 261 260 261 266 266 260 254 241 224 216 209 200 194 191 190 196 202 203 206 209
182 143 129 125 126 136 169 188 282 299 288 290 296 296 290 279 271 271 270 259 248 244 247 253 260 265 264 256 244 222 206 201 198 192 189 187 191 200 204 204 210 217
182 152 144 152 169 205 215 225 262 266 263 268 274 282 292 287 271 263 266 268 257 243 236 239 249 255 249 232 213 201 193 188 186 184 180 178 181 189 195 202 220 236
182 176 189 190 196 210 218 248 266 263 265 270 271 278 287 291 287 276 269 268 264 251 239 234 236 237 225 205 197 195 189 179 174 174 173 177 186 195 209 225 235 244
203 211 204 193 202 224 242 257 260 257 258 261 266 274 279 284 288 282 271 265 265 259 245 231 225 217 204 195 193 192 189 182 175 169 162 167 184 195 205 221 228 232
288 279 259 247 249 253 256 255 250 250 253 258 268 274 275 284 289 280 263 254 253 250 236 222 213 201 189 189 191 189 187 184 177 166 154 146 145 143 137 141 181 207